Location: LDNL
(36.4545°S, 141.6685°E)
Time: 05:08:25
(UTC+11:00)

A-11 Canister half - Pass Details

Date: 14 August 2022
Orbit: 1524 x 1684 km, 47.3° (Epoch: 05 October)

Event Time Altitude Azimuth Distance (km) Brightness Sun altitude
Rises 20:35:06 0° 252° (WSW) 4,691 12.6 -31.8°
Reaches altitude 10° 20:38:23 10° 245° (WSW) 3,708 11.8 -32.5°
Maximum altitude 20:47:13 44° 174° (S) 2,035 9.5 -34.3°
Enters shadow 20:48:11 43° 159° (SSE) 2,066 9.4 -34.5°
Drops below altitude 10° 20:56:09 10° 103° (ESE) 3,759 - -36.0°
Sets 20:59:30 0° 96° (E) 4,760 - -36.7°
